{"data":{"norad_id":68485,"intl_designator":"2026-067BX","name":"CAPELLA-20 (ACADIA-10)","alt_names":[],"object_type":"PAYLOAD","status":"ACTIVE","operator":null,"country":"US","launch_date":"2026-03-30","launch_site_code":"AFWTR","launch_vehicle":null,"mission":null,"orbit_class":"UNKNOWN","rcs_meters":null,"size_class":null,"mass_kg":null,"dimensions":null,"purposes":[],"wikipedia_slug":null,"has_3d_model":false,"image_url":null,"decayed_at":null,"tle_current":{"epoch":"2026-05-25T03:55:24.436992Z","epoch_age_seconds":57007,"freshness":"FRESH","line1":"1 68485U 26067BX  26145.16347728  .00006604  00000+0  65264-3 0  9999","line2":"2 68485  97.7560 103.7919 0002895  58.5206 301.6296 14.92246360  8290","mean_motion":14.9224636,"eccentricity":0.0002895,"inclination_deg":97.756,"raan_deg":103.7919,"arg_perigee_deg":58.5206,"mean_anomaly_deg":301.6296,"bstar":0.00065264,"rev_number":829,"period_min":96.498811362488,"perigee_km":588.91538622851,"apogee_km":592.95047771913,"semimajor_km":6969.0699319738,"source":"CELESTRAK","updated_at":"2026-05-25T13:38:07.871244Z"}}}